| time (UTC) | temp C | wind direction | speed KPH | gust KPH | rain 1hr cm | rain 24hr cm | rain mn cm | humidity % | barometer mb |
| 20260507110044 | 10 | 271 | 0.0 | 3.2 | 0.00 | 0.00 | 0.00 | 80 | 1023.8 |
| 20260507104543 | 10 | 226 | 0.0 | 3.2 | 0.00 | 0.00 | 0.00 | 80 | 1023.9 |
| 20260507103042 | 11 | 295 | 0.0 | 1.6 | 0.00 | 0.00 | 0.00 | 80 | 1024.0 |
| 20260507101540 | 11 | 221 | 0.0 | 1.6 | 0.00 | 0.00 | 0.00 | 80 | 1024.1 |
| 20260507100040 | 11 | 248 | 0.0 | 1.6 | 0.00 | 0.00 | 0.00 | 79 | 1024.2 |
| 20260507094537 | 11 | 273 | 0.0 | 1.6 | 0.00 | 0.00 | 0.00 | 80 | 1024.3 |
| 20260507093037 | 11 | 273 | 0.0 | 1.6 | 0.00 | 0.00 | 0.00 | 79 | 1024.4 |
| 20260507091535 | 11 | 238 | 1.6 | 4.8 | 0.00 | 0.00 | 0.00 | 79 | 1024.6 |
| 20260507090034 | 11 | 240 | 0.0 | 3.2 | 0.00 | 0.00 | 0.00 | 80 | 1024.6 |
| 20260507084534 | 11 | 224 | 0.0 | 4.8 | 0.00 | 0.00 | 0.00 | 80 | 1024.6 |
| 20260507083033 | 11 | 252 | 0.0 | 1.6 | 0.00 | 0.00 | 0.00 | 80 | 1024.5 |
| 20260507081542 | 11 | 233 | 0.0 | 3.2 | 0.00 | 0.00 | 0.00 | 81 | 1024.6 |
| 20260507080036 | 11 | 241 | 0.0 | 1.6 | 0.00 | 0.00 | 0.00 | 81 | 1024.6 |
| 20260507074533 | 11 | 226 | 0.0 | 3.2 | 0.00 | 0.00 | 0.00 | 81 | 1024.5 |
| 20260507073029 | 11 | 255 | 0.0 | 4.8 | 0.00 | 0.00 | 0.00 | 82 | 1024.5 |
| 20260507071532 | 11 | 229 | 0.0 | 3.2 | 0.00 | 0.00 | 0.00 | 82 | 1024.3 |
| 20260507070025 | 11 | 29 | 0.0 | 6.4 | 0.00 | 0.00 | 0.00 | 82 | 1024.3 |
| 20260507064525 | 11 | 17 | 1.6 | 12.9 | 0.00 | 0.00 | 0.00 | 82 | 1024.3 |
| 20260507063023 | 11 | 319 | 0.0 | 3.2 | 0.00 | 0.00 | 0.00 | 83 | 1024.3 |
| 20260507061530 | 11 | 26 | 1.6 | 11.3 | 0.00 | 0.00 | 0.00 | 84 | 1024.4 |
| 20260507060021 | 11 | 49 | 1.6 | 6.4 | 0.00 | 0.00 | 0.00 | 85 | 1024.4 |
| 20260507054521 | 11 | 44 | 0.0 | 6.4 | 0.00 | 0.00 | 0.00 | 86 | 1024.3 |
| 20260507053023 | 11 | 33 | 0.0 | 6.4 | 0.00 | 0.00 | 0.00 | 85 | 1024.3 |
| 20260507051518 | 11 | 27 | 0.0 | 11.3 | 0.00 | 0.00 | 0.00 | 85 | 1024.3 |
| 20260507050020 | 12 | 38 | 1.6 | 6.4 | 0.00 | 0.00 | 0.00 | 84 | 1024.3 |
| 20260507044516 | 12 | 62 | 1.6 | 6.4 | 0.00 | 0.00 | 0.00 | 83 | 1024.3 |
| 20260507043015 | 12 | 290 | 1.6 | 9.7 | 0.00 | 0.00 | 0.00 | 82 | 1024.2 |
| 20260507041514 | 12 | 352 | 1.6 | 6.4 | 0.00 | 0.00 | 0.00 | 82 | 1024.1 |
| 20260507040013 | 12 | 57 | 1.6 | 9.7 | 0.00 | 0.00 | 0.00 | 81 | 1023.9 |
| 20260507034514 | 13 | 28 | 1.6 | 6.4 | 0.00 | 0.00 | 0.00 | 81 | 1023.7 |
| 20260507033012 | 13 | 286 | 0.0 | 8.0 | 0.00 | 0.00 | 0.00 | 81 | 1023.5 |
| 20260507031511 | 13 | 34 | 3.2 | 8.0 | 0.00 | 0.00 | 0.00 | 81 | 1023.3 |
| 20260507030011 | 13 | 49 | 3.2 | 8.0 | 0.00 | 0.00 | 0.00 | 80 | 1023.1 |
| 20260507024511 | 13 | 303 | 1.6 | 8.0 | 0.00 | 0.00 | 0.00 | 80 | 1023.0 |
| 20260507023010 | 14 | 49 | 3.2 | 11.3 | 0.00 | 0.00 | 0.00 | 79 | 1022.9 |
| 20260507021509 | 14 | 41 | 3.2 | 12.9 | 0.00 | 0.00 | 0.00 | 78 | 1022.7 |
| 20260507020010 | 15 | 32 | 4.8 | 8.0 | 0.00 | 0.00 | 0.00 | 77 | 1022.8 |
| 20260507014508 | 15 | 57 | 3.2 | 12.9 | 0.00 | 0.00 | 0.00 | 76 | 1023.0 |
| 20260507013012 | 16 | 273 | 3.2 | 9.7 | 0.00 | 0.00 | 0.00 | 73 | 1023.0 |
| 20260507011507 | 17 | 47 | 1.6 | 9.7 | 0.00 | 0.00 | 0.00 | 71 | 1023.0 |
| 20260507010022 | 17 | 276 | 1.6 | 9.7 | 0.00 | 0.00 | 0.00 | 69 | 1023.0 |
| 20260507004506 | 18 | 232 | 4.8 | 12.9 | 0.00 | 0.00 | 0.00 | 66 | 1023.0 |
| 20260507003006 | 18 | 283 | 3.2 | 16.1 | 0.00 | 0.00 | 0.00 | 69 | 1022.9 |
| 20260507001505 | 18 | 58 | 4.8 | 16.1 | 0.00 | 0.00 | 0.00 | 70 | 1022.9 |
| 20260507000004 | 18 | 278 | 3.2 | 9.7 | 0.00 | 0.00 | 0.00 | 71 | 1022.9 |
| 20260506234507 | 18 | 202 | 0.0 | 8.0 | 0.00 | 0.00 | 0.00 | 70 | 1022.9 |
| 20260506233004 | 19 | 32 | 1.6 | 6.4 | 0.00 | 0.00 | 0.00 | 67 | 1022.9 |
| 20260506231501 | 20 | 238 | 0.0 | 4.8 | 0.00 | 0.00 | 0.00 | 66 | 1022.9 |
| 20260506230100 | 20 | 258 | 0.0 | 1.6 | 0.00 | 0.00 | 0.00 | 67 | 1023.0 |
| 20260506224613 | 19 | 298 | 0.0 | 3.2 | 0.00 | 0.00 | 0.00 | 67 | 1023.3 |
| 20260506223102 | 19 | 33 | 0.0 | 1.6 | 0.00 | 0.00 | 0.00 | 69 | 1023.4 |
| 20260506221558 | 19 | 271 | 0.0 | 3.2 | 0.00 | 0.00 | 0.00 | 70 | 1023.4 |
| 20260506220109 | 20 | 256 | 1.6 | 4.8 | 0.00 | 0.00 | 0.00 | 67 | 1023.5 |
| 20260506214554 | 19 | 181 | 0.0 | 4.8 | 0.00 | 0.00 | 0.00 | 70 | 1023.5 |
| 20260506213051 | 18 | 273 | 0.0 | 3.2 | 0.00 | 0.00 | 0.00 | 72 | 1023.4 |
| 20260506211554 | 18 | 297 | 0.0 | 1.6 | 0.00 | 0.00 | 0.00 | 74 | 1023.7 |
| 20260506210047 | 17 | 235 | 0.0 | 4.8 | 0.00 | 0.00 | 0.00 | 75 | 1023.9 |
| 20260506204545 | 17 | 240 | 0.0 | 1.6 | 0.00 | 0.00 | 0.00 | 74 | 1023.8 |
| 20260506203042 | 17 | 229 | 0.0 | 3.2 | 0.00 | 0.00 | 0.00 | 77 | 1023.8 |
| 20260506201538 | 16 | 250 | 0.0 | 1.6 | 0.00 | 0.00 | 0.00 | 79 | 1023.7 |
| 20260506200037 | 15 | 315 | 0.0 | 3.2 | 0.00 | 0.00 | 0.00 | 82 | 1023.9 |
| 20260506194543 | 15 | 30 | 1.6 | 6.4 | 0.00 | 0.00 | 0.00 | 81 | 1024.1 |
| 20260506193038 | 16 | 22 | 0.0 | 4.8 | 0.00 | 0.00 | 0.00 | 79 | 1024.3 |
| 20260506191534 | 16 | 280 | 0.0 | 1.6 | 0.00 | 0.00 | 0.00 | 76 | 1024.1 |
| 20260506190033 | 16 | 253 | 0.0 | 1.6 | 0.00 | 0.00 | 0.00 | 80 | 1024.1 |
| 20260506184531 | 16 | 260 | 0.0 | 1.6 | 0.00 | 0.00 | 0.00 | 81 | 1024.0 |
| 20260506183027 | 15 | 247 | 0.0 | 1.6 | 0.00 | 0.00 | 0.00 | 85 | 1023.9 |
| 20260506181522 | 15 | 215 | 0.0 | 3.2 | 0.00 | 0.00 | 0.00 | 85 | 1024.0 |
| 20260506180021 | 14 | 281 | 0.0 | 0.0 | 0.00 | 0.00 | 0.00 | 86 | 1024.0 |
| 20260506174520 | 14 | 282 | 0.0 | 0.0 | 0.00 | 0.00 | 0.00 | 85 | 1024.1 |
| 20260506173022 | 14 | 242 | 0.0 | 0.0 | 0.00 | 0.00 | 0.00 | 87 | 1023.9 |
| 20260506171524 | 13 | 239 | 0.0 | 0.0 | 0.00 | 0.00 | 0.00 | 87 | 1023.7 |
| 20260506170017 | 13 | 239 | 0.0 | 1.6 | 0.00 | 0.00 | 0.00 | 87 | 1023.7 |
| 20260506164518 | 13 | 238 | 0.0 | 1.6 | 0.00 | 0.00 | 0.00 | 87 | 1023.8 |
| 20260506163017 | 13 | 341 | 0.0 | 0.0 | 0.00 | 0.00 | 0.00 | 89 | 1023.7 |
| 20260506161515 | 13 | 341 | 0.0 | 1.6 | 0.00 | 0.00 | 0.00 | 89 | 1023.6 |
| 20260506160024 | 12 | 273 | 0.0 | 3.2 | 0.00 | 0.00 | 0.00 | 90 | 1023.6 |
| 20260506154517 | 12 | 9 | 0.0 | 4.8 | 0.00 | 0.00 | 0.00 | 91 | 1023.3 |
| 20260506153013 | 12 | 17 | 0.0 | 3.2 | 0.00 | 0.00 | 0.00 | 91 | 1023.1 |
| 20260506151515 | 11 | 39 | 1.6 | 6.4 | 0.00 | 0.00 | 0.00 | 90 | 1023.7 |
| 20260506150011 | 12 | 47 | 0.0 | 3.2 | 0.00 | 0.00 | 0.00 | 91 | 1023.7 |
| 20260506144509 | 12 | 35 | 0.0 | 4.8 | 0.00 | 0.00 | 0.00 | 91 | 1023.5 |
| 20260506143008 | 12 | 319 | 1.6 | 8.0 | 0.00 | 0.00 | 0.00 | 91 | 1023.4 |
| 20260506141504 | 12 | 34 | 0.0 | 4.8 | 0.00 | 0.00 | 0.00 | 91 | 1022.9 |
| 20260506140004 | 12 | 39 | 0.0 | 4.8 | 0.00 | 0.00 | 0.00 | 91 | 1022.8 |
| 20260506134502 | 12 | 34 | 0.0 | 4.8 | 0.00 | 0.00 | 0.00 | 91 | 1022.7 |
| 20260506133115 | 12 | 32 | 0.0 | 4.8 | 0.00 | 0.00 | 0.00 | 90 | 1022.6 |
| 20260506131604 | 12 | 33 | 1.6 | 4.8 | 0.00 | 0.00 | 0.00 | 90 | 1022.6 |
| 20260506130058 | 12 | 129 | 0.0 | 1.6 | 0.00 | 0.00 | 0.00 | 90 | 1022.2 |
| 20260506124600 | 12 | 144 | 0.0 | 0.0 | 0.00 | 0.00 | 0.00 | 90 | 1022.2 |
| 20260506123057 | 12 | 144 | 0.0 | 1.6 | 0.00 | 0.00 | 0.00 | 90 | 1022.1 |
| 20260506121555 | 12 | 143 | 0.0 | 0.0 | 0.00 | 0.00 | 0.00 | 90 | 1022.2 |
| 20260506120054 | 12 | 26 | 0.0 | 3.2 | 0.00 | 0.00 | 0.00 | 89 | 1022.1 |
| 20260506114553 | 12 | 51 | 0.0 | 3.2 | 0.00 | 0.00 | 0.00 | 89 | 1022.0 |
| 20260506113050 | 12 | 5 | 0.0 | 1.6 | 0.00 | 0.00 | 0.00 | 89 | 1021.8 |
| 20260506111548 | 12 | 11 | 0.0 | 1.6 | 0.00 | 0.00 | 0.00 | 89 | 1021.8 |